Regional Weather Roundup
Issued by NWS Bismarck, ND

Home | Current Version | Previous Version | Text Only | Print | Product List | Glossary On
Versions: 1 2 3 4 5 6 7 8 9 10 11 12 13 14 15 16 17 18 19 20 21 22 23 24 25 26 27 28 29 30 31 32 33 34 35 36 37 38 39 40 41 42 43 44 45 46 47 48 49 50
000
ASUS43 KBIS 231120
RWRBIS

NWR BROADCAST TEXT
NATIONAL WEATHER SERVICE BISMARCK ND
600 AM CDT THU OCT 23 2014

NOTE: "FAIR" INDICATES FEW OR NO CLOUDS BELOW 12,000 FEET WITH NO
SIGNIFICANT WEATHER AND/OR OBSTRUCTIONS TO VISIBILITY.


CITY           SKY/WX    TMP DP  RH WIND       PRES   REMARKS
WILLISTON      CLEAR     36  31  82 S3        29.85S
MINOT          CLEAR     43  34  70 SW10      29.84S
MINOT AFB      CLEAR     44  35  72 SW13      29.83S
BISMARCK       CLEAR     33  30  88 CALM      29.92S
DICKINSON      CLEAR     38  27  64 SW3       29.88S
GARRISON         N/A     42  37  82 CALM      29.87S
HETTINGER ARPT CLEAR     31  25  78 CALM      29.92F
JAMESTOWN      CLEAR     42  36  79 SW6       29.89S
BEACH            N/A     32  28  86 S3        29.90S
CARRINGTON     FAIR      41  39  93 SW7       29.89R
CROSBY         MIX PCPN  37  36  93 SW14      29.82S
HARVEY         FAIR      41  36  81 SW10      29.87R
HAZEN          FAIR      32  28  86 SW3       29.90S
LINTON         FAIR      30  30 100 SE6       29.94S
MANDAN         FAIR      41  32  70 SW12      29.92S
OAKES            N/A     34  34 100 S8        29.94R
RUGBY          FAIR      39  36  87 SW7       29.84S
STANLEY        FAIR      37  36  93 S3        29.84F
TIOGA          FAIR      36  36 100 W5        29.86F
$$

CITY           SKY/WX    TMP DP  RH WIND       PRES   REMARKS
GRAND FORKS    PTCLDY    47  44  90 SW7       29.83S
GRAND FORKS AF CLEAR     45  45  99 W7        29.84R
DEVILS LAKE    CLEAR     46  36  66 SW9       29.84R
FARGO          CLEAR     43  41  93 S7        29.90R
CANDO          FAIR      39  37  93 SW9       29.84R
CAVALIER       FAIR      50  45  81 W9        29.80S
GRAFTON        FAIR      45  45 100 SW8       29.82R
GWINNER        SUNNY     41  41 100 SW12      29.94R
LANGDON        FAIR      41  39  93 SW12      29.81S
ROLLA          FAIR      41  39  93 SW10      29.82R
WALHALLA       FAIR      50  46  87 W10       29.79S
$$

CITY           SKY/WX    TMP DP  RH WIND       PRES   REMARKS
ABERDEEN       CLEAR     33  31  92 SE7       29.95S
MOBRIDGE       CLEAR     41  35  79 S5        29.94R
BUFFALO          N/A     40  28  62 W10       29.87F
RAPID CITY     CLEAR     34  27  75 CALM      29.98S
GLASGOW        CLEAR     37  32  82 E9        29.81R
SIDNEY         CLEAR     32  28  86 S7        29.87F
WOLF POINT     CLEAR     29  25  85 E3        29.83F
GLENDIVE       CLEAR     32  27  80 S10       29.89S
MILES CITY     CLEAR     36  27  69 SE12      29.89F
BAKER          CLEAR     44  28  53 W13       29.92R
$$

CITY           SKY/WX    TMP DP  RH WIND       PRES   REMARKS
BILLINGS       CLOUDY    48  23  37 SW12      29.91S
GREAT FALLS    CLOUDY    52  32  46 S16       29.80F
REGINA         CLEAR     32  30  93 SE7       29.76S
ESTEVAN        PTCLDY    36  32  87 SW8       29.80S
$$




USA.gov is the U.S. government's official web portal to all federal, state and local government web resources and services.